This is the latest recevied weather packets stored in our database for station/object K7DC. If no packets are shown the sender has not sent any weather packets the latest 10 day(s).
| Time | Temp. | Humidity | Pressure | Rain* | Wind** | Luminosity | Snow |
|---|---|---|---|---|---|---|---|
| 1777574216 | 28.89° C | 11% | 1010.5 hPa | 0 mm | - | 922 W/m² | - |
| 1777573911 | 28.89° C | 12% | 1010.5 hPa | 0 mm | - | 916 W/m² | - |
| 1777573611 | 28.33° C | 12% | 1010.6 hPa | 0 mm | - | 912 W/m² | - |
| 1777573308 | 28.89° C | 11% | 1010.8 hPa | 0 mm | - | 907 W/m² | - |
| 1777573004 | 28.33° C | 12% | 1010.8 hPa | 0 mm | - | 904 W/m² | - |
| 1777572700 | 27.78° C | 12% | 1011.1 hPa | 0 mm | - | 896 W/m² | - |
| 1777572399 | 28.33° C | 11% | 1011.1 hPa | 0 mm | - | 891 W/m² | - |
| 1777572097 | 27.78° C | 13% | 1011.3 hPa | 0 mm | - | 886 W/m² | - |
| 1777571797 | 26.67° C | 15% | 1011.4 hPa | 0 mm | - | 885 W/m² | - |
| 1777571493 | 27.22° C | 15% | 1011.5 hPa | 0 mm | - | 665 W/m² | - |
| 1777571191 | 27.22° C | 14% | 1011.6 hPa | 0 mm | - | 778 W/m² | - |
| 1777570886 | 27.22° C | 14% | 1011.8 hPa | 0 mm | - | 852 W/m² | - |
| 1777570582 | 27.22° C | 14% | 1011.8 hPa | 0 mm | - | 739 W/m² | - |
| 1777570279 | 27.22° C | 16% | 1011.6 hPa | 0 mm | - | 702 W/m² | - |
| 1777569975 | 27.22° C | 16% | 1011.9 hPa | 0 mm | - | 853 W/m² | - |
| 1777569670 | 26.67° C | 16% | 1012 hPa | 0 mm | - | 892 W/m² | - |
| 1777569367 | 26.11° C | 20% | 1012.1 hPa | 0 mm | - | 790 W/m² | - |
| 1777569063 | 25.56° C | 21% | 1012.1 hPa | 0 mm | - | 924 W/m² | - |
| 1777568760 | 25° C | 22% | 1012 hPa | 0 mm | - | 348 W/m² | - |
| 1777568457 | 25° C | 21% | 1011.9 hPa | 0 mm | - | 377 W/m² | - |
| 1777568154 | 24.44° C | 22% | 1011.9 hPa | 0 mm | - | 476 W/m² | - |
| 1777567851 | 25° C | 22% | 1011.9 hPa | 0 mm | - | 309 W/m² | - |
| 1777567547 | 24.44° C | 23% | 1012 hPa | 0 mm | - | 318 W/m² | - |
| 1777567244 | 24.44° C | 23% | 1012.1 hPa | 0 mm | - | 419 W/m² | - |
| 1777566943 | 23.89° C | 23% | 1011.9 hPa | 0 mm | - | 401 W/m² | - |
* Rain latest hour (hover to see other rain measurements)
** Current wind speed in m/s (hover to see current wind gust speed)